Wind_Speed
30 29 28 28 28 29 30 30 31 31 31 31 31 31 30 30 29 29 28 28 28 28 28 27 27 28 29 30 31 31 31 30 30 29 28 27 26 25 24 24 24 24 24 24 25 25 26 26 27 29 30 32 33 34 35 35 35 36 36 38 39 40 40 41 42 44 44 44 43
30 29 28 28 28 29 29 30 31 31 31 31 30 30 29 29 29 29 29 28 29 29 29 28 29 30 31 31 31 31 31 31 30 30 28 27 26 25 24 23 23 23 23 23 23 23 23 24 25 26 27 29 31 32 33 34 34 35 35 37 38 39 40 41 42 44 44 45 44
30 29 28 28 28 28 29 30 30 31 31 31 30 30 29 29 29 30 30 29 28 28 28 27 28 29 30 31 30 30 31 31 30 30 29 27 26 24 24 23 23 23 23 23 23 23 23 23 24 25 26 27 28 30 31 32 32 33 34 35 37 38 39 41 42 43 44 45 45
29 29 28 29 29 29 29 30 31 31 31 31 31 31 30 30 30 30 30 30 30 30 29 29 29 29 29 30 30 30 31 31 31 30 29 27 26 25 24 24 24 24 24 24 24 24 24 24 24 25 26 27 28 28 29 29 30 31 32 34 35 35 37 39 41 43 44 45 45
30 29 29 29 29 29 30 30 31 31 31 31 31 31 31 31 31 31 31 31 31 31 31 30 30 30 30 31 31 31 32 32 31 30 29 27 26 25 25 25 25 25 25 25 25 25 25 25 25 26 27 27 28 29 29 28 28 29 30 31 32 33 35 37 40 42 43 44 45
31 30 30 30 30 30 30 30 31 31 31 32 32 32 32 32 31 31 31 32 32 32 32 32 32 32 32 33 33 32 32 32 31 30 29 28 27 26 26 26 26 26 26 26 27 27 26 27 27 28 28 28 29 29 29 29 28 28 28 29 31 32 33 35 38 40 42 43 44
31 31 31 30 30 30 31 31 31 31 31 32 32 33 32 32 32 32 32 32 33 33 33 33 33 33 33 33 33 33 32 32 31 30 29 28 27 26 26 26 26 26 27 27 27 28 28 28 28 29 29 29 30 30 30 30 30 29 28 28 29 31 32 34 37 39 41 42 44
32 31 31 31 31 30 30 30 30 31 31 32 32 33 33 32 32 32 32 33 33 33 33 33 33 33 33 33 33 32 32 32 31 31 30 29 28 27 26 25 26 26 26 27 28 28 29 29 30 30 31 31 31 31 31 31 31 31 31 31 30 30 31 33 35 38 40 42 43
32 32 31 31 30 30 30 30 30 30 30 31 32 32 32 33 33 33 33 33 34 34 34 33 33 33 32 32 32 32 32 32 32 31 30 29 28 27 26 26 26 26 26 27 28 28 29 30 31 32 32 32 32 32 32 31 32 33 34 34 33 32 31 32 33 36 38 40 42
32 32 31 31 30 29 29 29 29 29 29 30 30 31 31 32 32 33 33 34 34 34 34 33 33 32 32 32 32 33 33 32 32 32 31 30 29 28 27 27 27 27 27 27 28 28 29 31 32 33 33 33 33 32 32 32 32 33 35 36 36 34 32 31 31 33 36 38 40
32 31 31 30 30 29 29 29 28 28 28 29 29 29 29 30 31 32 33 34 34 34 34 33 32 32 32 32 32 33 33 33 33 32 32 31 30 30 29 28 28 28 28 28 28 29 30 31 33 33 34 34 33 33 32 32 32 33 35 37 38 37 35 32 31 32 34 35 37
32 31 31 30 30 29 29 28 28 28 27 27 28 28 28 29 30 30 31 32 33 34 34 33 32 32 32 32 32 33 33 33 33 33 32 32 32 31 31 30 29 29 29 29 29 29 31 32 33 33 34 34 34 33 33 33 33 33 34 36 38 38 38 35 32 31 32 33 34
31 31 31 30 29 29 28 28 27 27 27 27 27 27 27 28 28 29 29 31 32 33 33 33 32 32 32 32 32 32 32 32 32 32 32 32 32 32 32 32 32 31 31 30 30 30 31 32 33 33 34 34 34 34 34 33 33 33 34 35 37 39 39 38 34 32 31 32 32
31 31 30 30 29 28 27 27 26 26 26 26 26 26 27 27 28 28 29 30 31 32 33 33 32 32 32 32 32 31 31 31 31 31 32 32 32 32 33 33 33 33 33 32 32 32 32 33 33 34 34 34 34 34 33 33 33 33 34 34 36 38 40 40 37 34 32 31 32
31 30 29 28 28 27 26 26 26 26 26 26 26 26 26 27 28 28 29 30 31 32 32 33 33 33 33 33 32 32 31 30 31 31 33 33 34 33 33 33 34 34 34 34 33 33 33 33 33 34 34 34 34 34 33 33 33 33 33 34 34 36 39 40 40 36 33 31 31
30 29 28 27 26 26 25 25 26 26 26 26 26 26 26 27 28 28 28 29 30 31 32 33 34 34 34 34 33 32 31 31 30 31 31 33 34 34 35 35 34 34 35 35 35 34 33 33 33 34 34 34 34 33 33 33 32 33 33 33 34 35 38 40 41 39 36 33 32
28 28 27 26 25 25 25 25 25 26 26 26 26 26 26 26 27 27 28 28 29 31 32 33 35 35 35 35 34 33 32 31 30 29 29 30 32 34 36 36 36 36 35 35 35 35 34 34 33 34 34 34 34 34 33 32 32 32 33 33 34 35 37 40 41 40 38 35 33
28 27 26 26 25 25 25 25 25 26 26 26 26 25 25 25 26 26 27 28 28 30 31 33 35 36 36 36 35 33 32 32 30 29 29 29 31 33 36 38 38 37 36 36 36 36 35 35 34 34 34 35 34 34 33 32 32 32 32 34 35 36 38 40 41 41 40 37 35
27 26 26 25 25 25 25 25 25 25 25 25 25 25 24 24 24 25 26 27 27 29 30 32 34 36 36 36 36 35 34 33 32 31 30 31 32 34 36 39 40 39 38 37 36 36 36 36 36 36 35 35 34 34 33 32 32 32 33 34 35 37 39 40 41 42 42 40 37
27 26 25 25 24 24 24 24 25 25 25 25 25 24 23 23 23 23 24 25 26 27 29 31 33 35 36 37 37 37 36 35 33 33 32 33 34 35 36 37 39 40 40 38 37 37 37 38 38 37 36 35 34 33 33 32 32 32 33 35 36 38 39 40 41 42 43 41 39
26 25 24 24 24 24 24 24 24 25 25 24 24 23 23 22 22 22 23 23 24 25 27 29 32 34 36 38 38 38 38 37 36 35 35 35 35 35 35 35 37 39 40 39 38 38 38 39 39 38 36 35 34 33 32 32 32 33 34 35 37 38 39 40 41 42 43 43 41
25 24 23 23 23 23 23 24 24 24 24 23 23 22 22 22 22 22 22 22 22 23 25 27 30 33 36 37 38 39 38 38 37 37 36 36 36 35 34 33 35 37 39 39 39 38 38 38 38 38 36 35 33 32 31 31 32 33 34 36 37 38 38 39 40 42 44 44 43
23 23 22 22 22 22 22 23 23 23 22 22 22 22 22 22 22 21 21 21 22 22 24 26 28 31 33 35 36 37 37 37 36 36 35 35 35 33 32 32 33 35 36 38 38 38 38 38 37 37 35 34 33 31 31 31 32 33 34 36 37 37 37 37 38 41 43 45 44
22 22 22 21 21 21 21 22 21 21 21 21 21 21 21 21 20 20 20 20 21 22 23 24 26 28 30 32 33 34 34 34 34 34 34 34 33 30 29 29 30 32 33 35 36 37 37 37 37 36 34 33 32 31 30 31 32 33 34 35 35 35 34 35 37 39 42 45 45
22 21 21 21 21 21 21 20 20 20 21 21 20 20 20 19 19 19 20 20 21 21 22 24 25 27 28 30 31 31 32 32 32 33 33 32 29 27 26 26 28 29 31 33 34 34 34 34 34 34 33 32 31 30 30 31 32 32 32 32 32 32 32 33 35 38 41 43 44
22 21 20 20 20 20 20 20 20 20 20 20 19 19 19 18 18 19 19 20 21 21 22 24 25 26 27 29 29 29 29 29 29 30 29 27 25 23 23 24 26 28 29 31 32 32 32 32 32 32 32 31 31 30 30 30 31 30 29 29 29 29 30 33 35 38 40 41 42
21 21 20 20 20 19 19 19 19 19 19 19 19 19 18 18 18 19 20 20 21 21 22 24 25 26 26 27 27 26 25 24 25 25 24 23 22 22 22 24 25 27 28 30 30 31 31 31 31 31 30 30 30 30 30 30 30 29 27 27 28 29 31 34 35 36 37 38 39
21 21 20 20 20 19 19 19 19 19 19 19 19 18 18 18 19 20 20 21 21 21 22 23 24 24 24 24 24 23 22 22 22 22 21 20 19 20 21 23 24 26 28 29 29 30 30 30 30 30 30 30 29 29 30 30 30 29 28 29 31 32 33 34 34 34 35 36 36
22 21 20 20 19 19 19 18 18 18 18 18 18 18 18 19 19 20 20 20 19 20 21 21 21 21 21 22 23 22 21 20 20 19 18 18 18 19 20 22 24 25 27 28 28 29 29 29 29 29 28 28 28 29 29 30 30 30 30 31 33 34 34 34 33 33 34 35 35
21 21 20 20 19 19 18 18 18 18 18 18 18 18 18 18 18 18 18 17 16 16 17 17 18 18 20 21 22 22 21 19 17 16 16 17 17 18 19 21 23 24 25 26 26 27 27 27 27 27 27 27 28 28 30 31 31 31 31 31 32 34 34 33 33 33 34 34 35
21 20 20 19 19 18 18 17 17 17 17 17 17 17 17 17 16 16 15 14 13 13 14 15 16 17 19 22 22 21 19 16 14 13 14 16 16 17 18 20 22 23 24 24 25 25 26 26 26 27 27 28 28 29 31 32 32 31 30 30 32 34 34 33 32 32 33 33 34
21 20 19 19 18 18 17 17 17 17 16 16 16 16 15 15 14 13 12 11 11 11 12 13 14 16 18 20 20 19 17 14 11 11 12 13 14 15 16 18 20 22 24 24 25 25 25 25 25 25 26 27 29 30 32 32 32 31 30 31 32 33 32 31 31 31 31 32 33
20 19 19 18 18 17 17 16 16 16 15 15 14 14 13 12 11 10 9 9 8 9 9 9 10 12 15 16 16 15 14 12 11 10 10 11 11 12 14 16 19 22 24 25 25 26 25 25 23 23 23 25 27 30 32 33 33 31 30 30 31 31 30 29 30 30 31 31 32
20 19 19 18 18 17 16 15 15 14 14 13 12 11 11 10 9 8 8 7 7 6 6 6 5 6 10 13 13 12 12 12 12 12 11 10 9 9 10 13 17 20 23 25 26 26 26 24 23 21 21 21 24 28 31 33 32 31 30 30 30 29 28 29 29 30 30 30 30
19 19 18 18 17 16 15 14 13 13 12 12 11 10 9 8 8 8 8 8 7 5 4 4 3 1 5 9 11 12 12 12 13 13 13 12 10 10 10 12 15 19 23 26 27 27 26 24 23 22 21 21 23 26 29 32 31 31 30 30 30 29 29 29 29 29 29 29 29
19 19 18 17 17 16 15 14 13 12 12 11 11 10 9 9 8 9 9 10 9 9 8 6 5 4 4 5 6 9 10 12 13 14 14 14 13 13 13 14 16 19 23 26 27 27 25 23 22 21 21 21 22 25 28 30 30 30 30 30 30 30 30 29 28 27 27 27 27
18 18 18 17 16 15 15 13 12 12 12 12 11 11 11 10 10 10 11 12 13 13 12 10 8 7 8 8 8 7 7 9 11 13 14 15 16 16 16 16 17 19 22 24 25 25 23 22 21 20 20 21 23 25 27 28 29 30 31 31 30 30 29 28 27 27 27 27 28
17 17 17 16 16 15 14 13 13 12 12 12 12 12 11 11 11 12 13 14 15 15 15 13 12 11 9 10 11 12 11 10 10 12 13 15 16 16 17 18 19 19 20 21 22 22 21 21 21 21 22 23 25 27 28 29 31 32 32 31 30 30 29 28 27 28 28 28 29
17 16 15 15 15 14 14 13 13 13 13 13 12 12 11 11 12 13 14 14 15 16 16 16 15 13 11 11 13 14 15 13 12 12 13 14 14 15 16 18 19 20 20 20 20 21 21 21 22 22 24 26 28 30 31 32 33 33 31 29 30 30 29 28 28 29 29 29 30
15 15 14 14 14 14 13 13 13 13 12 12 12 12 12 12 13 13 14 15 15 15 15 15 15 13 12 12 13 16 17 16 15 15 15 15 14 14 14 15 16 17 17 17 18 19 21 22 23 24 25 28 30 32 33 33 32 31 29 28 29 29 29 29 29 29 29 30 30
14 13 13 12 13 13 13 13 13 13 12 12 12 11 11 11 12 13 14 15 15 15 15 15 14 14 13 13 15 16 18 18 17 17 17 17 16 16 16 16 16 16 16 16 18 19 21 23 25 26 27 28 30 31 31 31 30 28 28 28 29 29 29 29 29 29 29 30 30
Wind_Direction
301 299 297 295 293 291 288 286 284 282 280 279 277 275 273 272 271 269 268 267 266 264 264 263 262 262 264 265 267 270 272 272 272 271 270 268 266 264 262 260 258 257 256 255 254 254 253 251 251 250 249 249 248 248 248 248 247 246 245 242 240 238 238 238 237 236 233 232 231
301 299 296 294 292 290 288 287 285 284 282 280 279 278 277 276 274 272 270 268 267 267 267 266 265 265 266 266 267 269 270 270 270 269 268 266 264 261 259 257 255 253 251 251 250 250 249 249 249 248 248 247 247 246 246 246 246 246 245 243 242 240 239 238 238 236 235 233 232
301 299 297 295 292 291 289 288 286 284 282 280 278 276 275 274 273 272 270 269 267 266 266 266 267 267 268 269 269 269 269 269 268 267 266 264 261 259 256 254 252 250 249 247 247 246 246 246 247 247 247 246 245 244 244 244 244 244 244 244 243 242 240 240 239 237 236 234 233
302 300 298 296 294 292 290 288 286 284 282 280 278 275 272 270 270 270 269 269 268 266 265 265 265 266 268 269 269 269 269 269 268 266 264 261 258 256 254 252 251 249 247 246 245 245 244 245 245 246 246 245 244 243 242 241 242 243 244 244 243 242 241 241 240 239 237 235 234
304 301 299 296 294 292 290 288 286 284 283 281 278 275 272 269 268 268 268 269 269 268 267 266 266 266 266 266 266 266 267 267 267 265 262 259 256 253 252 250 249 248 246 245 245 245 245 245 245 245 245 244 243 242 240 238 238 240 243 245 244 242 241 241 241 240 238 236 235
305 302 299 296 294 292 290 288 286 285 283 281 279 275 273 270 268 266 266 266 266 266 266 267 266 266 265 265 265 264 264 264 264 262 260 257 254 252 250 248 247 246 245 245 245 244 245 245 246 245 244 243 243 241 239 236 234 234 237 242 244 244 242 242 241 241 240 237 235
305 302 299 297 294 292 290 289 287 285 283 281 278 275 273 270 268 267 265 264 263 263 264 264 265 265 265 265 265 264 264 263 261 260 258 256 254 252 249 247 245 244 244 244 244 244 244 244 245 245 244 243 242 241 239 236 233 230 231 235 240 243 243 242 242 241 240 239 236
304 301 299 297 295 293 292 290 289 287 284 282 278 275 273 271 269 267 266 264 263 263 263 263 263 264 265 265 265 264 263 262 260 258 257 256 255 253 250 248 245 244 243 243 244 244 244 245 245 245 244 243 242 240 239 237 233 229 227 229 232 237 240 241 242 242 241 240 237
305 303 300 298 296 295 293 292 290 288 285 282 279 276 273 271 268 267 266 265 263 262 261 261 262 262 263 264 264 263 262 261 260 259 257 256 255 253 251 249 246 244 242 242 243 244 245 246 246 245 244 243 242 241 239 237 235 231 227 225 226 229 234 238 240 242 243 241 239
306 305 303 301 299 297 295 293 291 289 286 283 280 277 274 271 269 267 265 264 263 261 260 260 260 261 261 262 262 261 261 260 259 259 258 256 254 252 250 248 247 245 244 242 243 244 246 247 248 247 245 243 242 241 240 238 237 234 230 227 224 224 228 233 237 240 242 243 241
307 306 305 303 301 299 297 295 293 290 287 284 282 279 276 273 270 268 266 265 264 263 261 259 259 259 260 260 261 260 260 259 258 257 256 255 254 252 249 248 246 246 245 244 244 246 247 248 248 248 246 244 243 242 241 240 239 237 233 229 225 223 223 228 234 238 240 243 243
308 307 306 304 303 301 299 296 294 291 288 286 283 281 278 276 273 271 269 267 265 263 261 259 259 259 260 260 261 260 260 258 257 256 256 256 255 253 251 249 248 247 246 246 246 247 248 249 248 247 246 245 244 243 242 241 240 238 235 231 227 223 221 224 229 235 239 242 244
310 309 307 305 304 302 299 297 295 292 290 287 285 283 281 278 276 274 272 269 266 263 261 260 259 259 260 260 260 260 260 259 259 260 260 260 259 258 255 252 250 249 248 247 247 248 249 249 248 247 246 245 244 243 242 241 240 238 236 232 228 225 222 221 225 231 237 240 243
311 309 308 306 304 302 300 298 296 294 292 289 287 285 283 281 279 277 274 270 266 263 261 260 259 258 258 258 258 258 258 259 260 262 263 264 264 263 260 257 254 252 250 249 248 248 248 248 247 246 246 245 244 243 242 241 240 238 236 232 229 226 223 221 222 226 233 238 241
311 309 308 306 305 303 301 299 298 296 294 292 289 286 284 282 279 277 273 269 266 263 261 259 258 258 257 257 257 257 257 257 258 259 261 262 264 264 263 261 259 256 253 251 249 248 247 247 246 246 245 244 243 242 241 241 240 238 235 231 229 227 224 221 220 222 228 234 238
311 309 308 307 306 304 302 301 299 298 295 292 289 287 284 282 280 277 273 269 265 262 259 258 258 258 258 258 258 258 258 257 257 257 258 260 261 262 262 262 261 259 256 253 251 249 248 247 246 244 244 243 243 242 241 240 239 237 233 229 227 226 225 223 221 221 224 230 234
312 310 309 308 307 305 303 302 300 298 295 293 290 288 285 283 281 278 275 271 266 262 259 257 257 259 261 261 261 261 260 259 257 257 257 258 259 259 259 260 260 259 258 255 253 250 249 248 246 244 243 242 241 240 240 239 238 236 232 228 225 225 225 224 221 220 221 225 231
313 312 311 310 308 306 304 302 300 298 296 294 292 290 287 285 283 280 277 272 268 264 260 257 257 259 262 264 264 263 262 260 258 257 257 258 258 257 257 258 258 258 257 256 254 252 250 249 248 246 243 241 239 238 238 237 236 234 231 227 224 224 225 224 222 220 220 223 228
315 313 312 310 309 307 305 303 301 299 298 297 295 293 290 286 284 281 278 274 270 267 263 261 259 259 261 263 264 264 263 261 259 258 258 260 260 259 257 256 256 255 255 254 253 252 251 250 249 247 244 240 238 236 235 235 234 233 230 227 225 224 225 224 222 220 219 221 224
315 314 312 311 309 307 306 305 303 302 302 300 298 296 292 289 286 282 279 275 272 269 266 263 260 259 260 261 262 263 263 262 261 261 261 262 264 262 259 254 253 252 252 251 251 251 250 250 249 247 244 240 237 235 233 232 232 231 229 226 225 224 225 224 223 220 219 219 222
315 314 313 311 310 308 307 306 306 305 304 302 300 298 295 293 289 286 282 279 275 272 268 264 261 259 258 259 261 262 263 263 263 263 263 264 265 265 261 253 250 249 248 248 248 248 248 248 247 246 244 240 236 233 231 230 229 229 227 226 225 224 224 224 223 221 219 219 221
316 315 314 313 311 310 308 308 307 306 304 303 302 301 299 297 294 291 287 284 280 276 271 266 262 260 259 260 261 262 263 263 263 263 264 266 267 265 260 253 248 246 245 245 244 244 245 245 245 244 242 239 235 231 229 227 226 226 226 225 224 224 223 223 223 221 220 219 220
319 318 317 315 313 312 311 310 309 308 306 306 305 304 301 299 296 293 290 287 284 280 275 270 267 264 263 262 263 263 263 263 263 265 267 268 268 263 256 249 245 243 243 242 241 241 241 241 242 241 239 236 232 229 226 224 224 224 224 224 223 222 222 223 223 222 221 219 219
322 321 319 318 316 315 313 312 311 311 310 310 308 305 302 299 297 294 291 289 286 283 280 276 273 270 268 266 265 265 265 265 267 269 270 269 264 257 249 244 241 241 240 240 239 238 238 238 238 238 235 232 228 225 223 222 222 222 223 223 222 220 220 222 224 224 222 221 220
325 324 322 320 318 316 315 314 315 315 315 313 310 307 304 302 299 297 294 292 289 286 283 280 277 275 273 272 270 269 268 268 269 270 268 264 258 250 243 239 238 238 238 237 237 236 235 235 235 233 230 227 224 221 221 220 220 220 221 220 219 218 218 220 224 225 224 222 220
328 326 324 322 320 318 317 317 319 319 319 316 314 311 309 307 304 301 299 296 293 288 285 282 280 278 276 275 274 272 271 270 270 268 265 259 252 244 238 235 235 235 235 235 235 234 234 233 232 230 226 222 219 218 218 218 217 217 216 217 216 217 218 221 225 226 224 222 220
330 328 326 324 322 320 320 321 323 323 322 320 318 316 315 313 310 307 304 299 294 290 286 283 280 277 276 276 276 275 274 273 273 270 264 255 247 240 235 233 232 232 233 233 233 233 232 231 230 227 223 220 218 216 215 213 211 210 210 213 216 219 221 224 225 225 222 220 219
331 329 327 326 324 323 324 325 327 327 325 324 323 321 320 318 315 311 306 301 296 291 287 281 277 275 276 277 278 277 277 278 279 275 267 256 247 240 235 230 229 230 230 231 232 232 231 229 227 224 221 218 216 214 213 209 206 204 206 213 219 222 225 226 225 222 219 217 217
331 330 329 328 327 327 328 330 331 330 329 328 326 325 323 320 316 312 307 302 297 291 284 277 274 275 278 280 281 280 281 282 283 279 271 259 250 243 235 229 226 226 227 229 230 229 228 226 223 220 217 215 213 211 210 207 203 202 206 215 221 224 225 225 222 219 216 215 215
332 331 331 331 331 331 333 334 334 333 332 331 329 327 325 322 318 314 309 305 300 293 284 277 274 275 279 281 282 283 284 286 286 281 272 262 254 245 235 226 222 222 224 225 225 224 223 220 218 215 212 210 209 209 208 207 204 204 209 217 221 223 223 222 219 216 215 215 215
334 333 333 333 334 336 337 337 336 336 335 333 331 330 327 324 322 318 316 313 308 300 291 280 274 274 277 280 282 284 287 289 286 279 270 265 259 248 234 221 218 218 218 218 217 216 214 212 211 209 208 207 208 208 208 207 205 206 211 218 221 221 219 218 216 216 216 215 215
336 336 336 337 339 340 340 339 338 338 337 336 335 333 331 329 327 324 322 320 314 308 298 286 275 271 274 278 282 285 287 287 281 271 266 265 262 254 240 226 218 215 213 211 208 206 204 202 202 203 205 206 208 210 210 209 206 208 213 218 219 217 216 215 216 216 217 216 216
340 340 341 342 343 343 343 342 341 340 341 341 340 338 336 333 332 331 330 328 322 315 309 299 280 265 262 268 274 279 281 278 271 264 261 262 263 258 247 234 224 216 211 206 201 197 194 194 196 200 205 209 211 212 212 210 207 207 212 218 217 215 214 215 216 217 217 218 217
345 346 346 346 347 347 347 346 345 346 347 349 349 346 344 343 346 349 350 346 339 329 325 323 304 258 241 243 251 259 265 267 263 258 255 256 258 256 248 236 226 217 209 202 197 193 191 192 196 203 210 215 216 215 214 211 206 205 210 217 218 216 215 216 217 218 218 218 218
350 351 351 351 351 351 351 351 352 354 358 1 2 2 1 3 8 13 15 13 13 12 11 10 8 257 212 217 224 231 238 245 249 249 248 247 248 247 242 233 224 216 208 201 196 194 195 197 203 210 215 217 218 216 213 209 204 203 208 217 221 221 219 218 218 218 218 218 218
354 355 355 355 355 356 356 357 0 5 9 14 16 19 22 24 30 35 37 37 40 42 44 45 50 73 112 151 182 201 213 221 228 234 237 238 236 234 232 228 221 213 207 202 199 200 202 205 208 211 213 213 214 213 211 207 204 205 211 218 219 218 217 216 216 216 216 216 216
357 357 357 358 359 359 0 3 8 14 21 25 27 29 32 36 41 46 47 46 47 49 48 49 52 62 77 94 108 131 165 191 203 212 221 227 228 228 227 226 222 215 208 203 202 203 206 207 206 204 205 208 211 211 209 208 208 213 217 217 212 207 207 210 210 211 212 212 212
358 357 358 359 1 2 4 7 14 22 28 32 35 37 38 40 44 48 49 48 49 50 49 48 48 53 64 80 93 105 121 145 167 183 196 208 215 220 223 225 224 219 211 206 203 202 202 202 198 197 200 206 211 212 211 212 214 218 217 211 201 198 200 203 204 205 207 208 208
360 358 359 1 3 6 9 14 20 26 31 36 39 40 41 42 46 49 51 52 53 53 52 51 52 55 63 77 87 96 105 119 134 150 164 176 190 201 210 216 221 222 219 213 207 203 200 198 196 197 202 208 212 213 213 213 215 214 209 199 192 192 195 198 199 201 203 204 204
2 1 2 5 9 12 16 21 26 30 33 37 40 42 43 46 50 52 54 55 57 57 57 56 57 59 65 75 82 87 94 103 112 123 133 142 154 168 181 192 202 209 211 208 204 200 199 198 200 202 206 210 212 212 211 211 209 203 195 187 186 189 192 195 197 198 198 199 200
8 7 9 13 17 20 23 26 29 32 36 39 43 45 48 50 53 55 56 58 59 60 59 60 61 63 66 70 75 80 84 90 96 103 111 120 128 137 146 154 163 169 174 178 183 188 191 195 199 202 205 207 208 207 206 203 198 191 186 184 186 189 191 193 194 194 194 194 195
Height
1372 1371 1370 1369 1368 1367 1366 1365 1364 1364 1363 1362 1361 1361 1360 1360 1360 1359 1359 1358 1358 1357 1357 1357 1357 1356 1356 1357 1357 1358 1358 1358 1359 1359 1360 1360 1361 1361 1362 1363 1364 1365 1366 1366 1367 1369 1370 1371 1372 1373 1374 1374 1375 1376 1377 1379 1380 1381 1382 1384 1385 1386 1388 1390 1391 1392 1394 1396 1398
1370 1369 1368 1367 1366 1365 1364 1362 1361 1361 1360 1360 1359 1358 1358 1357 1357 1356 1356 1356 1355 1355 1354 1354 1354 1354 1354 1354 1355 1355 1355 1355 1356 1356 1357 1357 1358 1359 1360 1360 1361 1362 1363 1364 1365 1366 1367 1368 1369 1370 1371 1371 1372 1373 1375 1376 1377 1379 1380 1381 1382 1384 1385 1386 1388 1389 1391 1393 1395
1367 1366 1365 1364 1363 1362 1361 1360 1359 1358 1357 1357 1356 1356 1355 1355 1354 1354 1353 1352 1352 1352 1352 1352 1351 1351 1351 1351 1351 1352 1352 1352 1353 1353 1354 1355 1355 1356 1357 1358 1359 1360 1361 1362 1363 1364 1365 1366 1367 1367 1368 1369 1370 1371 1372 1373 1375 1376 1377 1378 1380 1381 1382 1383 1385 1386 1389 1391 1392
1364 1363 1362 1361 1361 1360 1358 1357 1356 1355 1355 1354 1353 1353 1352 1351 1351 1351 1350 1349 1349 1349 1349 1349 1349 1349 1348 1349 1349 1349 1349 1350 1350 1351 1351 1352 1353 1354 1355 1356 1356 1357 1358 1359 1360 1361 1362 1363 1364 1365 1366 1366 1367 1368 1370 1371 1372 1374 1374 1375 1377 1379 1380 1381 1382 1384 1386 1387 1389
1361 1361 1360 1359 1358 1356 1356 1355 1353 1352 1351 1351 1351 1350 1349 1348 1348 1348 1347 1347 1346 1346 1346 1346 1346 1346 1346 1346 1346 1346 1346 1347 1348 1348 1349 1350 1351 1351 1352 1353 1354 1355 1356 1357 1358 1359 1360 1361 1362 1362 1363 1364 1365 1366 1367 1369 1371 1371 1372 1373 1375 1376 1377 1378 1379 1381 1382 1384 1386
1358 1358 1357 1356 1355 1354 1353 1352 1351 1350 1349 1348 1347 1347 1346 1346 1345 1345 1344 1344 1344 1343 1343 1343 1343 1343 1343 1343 1343 1343 1344 1344 1345 1346 1347 1347 1348 1349 1350 1351 1351 1352 1353 1354 1355 1356 1357 1358 1359 1360 1360 1361 1362 1363 1365 1366 1368 1370 1371 1372 1372 1373 1375 1376 1377 1378 1380 1381 1383
1356 1355 1354 1353 1352 1351 1350 1349 1348 1347 1346 1345 1344 1343 1343 1343 1342 1342 1341 1341 1341 1340 1340 1340 1340 1340 1340 1340 1341 1341 1341 1342 1343 1344 1344 1345 1346 1347 1347 1348 1349 1350 1351 1351 1352 1353 1354 1356 1356 1357 1357 1358 1359 1360 1362 1363 1365 1366 1368 1370 1371 1372 1373 1373 1374 1375 1377 1378 1381
1354 1352 1351 1350 1349 1348 1347 1346 1345 1344 1343 1342 1341 1341 1340 1340 1340 1339 1339 1338 1338 1338 1338 1338 1338 1338 1338 1338 1338 1338 1339 1340 1341 1341 1342 1343 1343 1344 1345 1345 1346 1347 1348 1349 1350 1351 1351 1352 1353 1354 1354 1356 1356 1357 1359 1360 1362 1363 1365 1367 1369 1370 1371 1371 1372 1373 1374 1376 1378
1351 1350 1349 1348 1346 1346 1344 1343 1342 1341 1340 1339 1338 1338 1337 1337 1337 1336 1336 1336 1335 1335 1335 1335 1335 1335 1336 1336 1336 1336 1337 1338 1338 1339 1340 1340 1341 1341 1342 1342 1343 1344 1345 1346 1347 1348 1349 1349 1350 1351 1351 1352 1353 1355 1356 1358 1359 1360 1361 1363 1365 1367 1369 1370 1370 1371 1371 1373 1375
1349 1347 1346 1345 1344 1343 1342 1341 1340 1339 1337 1336 1335 1335 1335 1334 1334 1334 1333 1333 1333 1332 1333 1333 1333 1333 1334 1334 1334 1335 1335 1335 1336 1336 1337 1337 1338 1338 1339 1340 1341 1341 1342 1343 1344 1345 1346 1346 1347 1347 1348 1349 1351 1352 1353 1355 1356 1357 1359 1360 1362 1364 1366 1368 1369 1369 1369 1370 1372
1346 1345 1344 1343 1341 1340 1339 1338 1337 1336 1335 1334 1333 1332 1332 1332 1331 1331 1331 1331 1331 1330 1330 1330 1331 1331 1331 1331 1332 1332 1332 1333 1333 1333 1334 1334 1335 1336 1336 1337 1338 1338 1339 1340 1341 1342 1343 1343 1344 1344 1345 1346 1348 1349 1351 1352 1353 1355 1356 1357 1359 1361 1363 1365 1366 1367 1367 1368 1369
1344 1343 1341 1340 1339 1338 1337 1336 1334 1333 1332 1331 1331 1330 1330 1329 1329 1329 1329 1329 1328 1327 1327 1328 1329 1329 1329 1329 1329 1329 1330 1330 1330 1331 1331 1331 1332 1332 1333 1334 1335 1335 1336 1337 1338 1339 1339 1340 1340 1341 1342 1343 1345 1346 1348 1349 1351 1352 1353 1354 1356 1358 1360 1362 1364 1366 1366 1366 1367
1342 1341 1339 1338 1337 1336 1335 1333 1332 1331 1330 1329 1328 1328 1327 1327 1327 1327 1326 1326 1326 1325 1325 1326 1326 1327 1327 1327 1327 1327 1327 1327 1328 1328 1328 1328 1329 1329 1330 1331 1331 1332 1333 1334 1335 1336 1336 1336 1337 1338 1339 1340 1342 1343 1345 1346 1347 1349 1350 1351 1353 1355 1357 1359 1361 1363 1364 1364 1365
1340 1339 1337 1336 1335 1334 1332 1331 1330 1329 1328 1327 1326 1326 1326 1325 1325 1325 1324 1324 1323 1323 1323 1324 1324 1324 1324 1324 1325 1325 1325 1325 1325 1325 1325 1325 1325 1326 1327 1327 1328 1329 1330 1331 1331 1332 1333 1333 1334 1335 1336 1337 1339 1340 1342 1343 1345 1346 1347 1349 1351 1352 1354 1356 1358 1361 1362 1363 1363
1338 1336 1335 1334 1333 1332 1331 1329 1328 1327 1326 1325 1324 1324 1323 1323 1322 1322 1321 1321 1321 1321 1321 1321 1321 1321 1322 1322 1322 1322 1322 1322 1322 1323 1323 1322 1322 1323 1323 1324 1325 1326 1326 1327 1328 1329 1329 1330 1331 1332 1333 1334 1336 1337 1339 1340 1342 1343 1345 1346 1348 1350 1351 1354 1356 1358 1360 1361 1361
1336 1334 1333 1332 1331 1330 1328 1327 1326 1325 1324 1323 1322 1322 1321 1320 1320 1319 1319 1318 1318 1318 1318 1318 1318 1319 1319 1319 1319 1319 1319 1319 1319 1320 1320 1320 1320 1320 1320 1321 1321 1322 1323 1324 1325 1325 1326 1327 1328 1329 1330 1331 1333 1334 1336 1337 1339 1340 1342 1343 1345 1347 1349 1351 1353 1355 1357 1359 1360
1334 1332 1331 1330 1329 1327 1326 1325 1324 1323 1322 1321 1320 1319 1318 1318 1317 1316 1316 1316 1316 1316 1316 1316 1316 1316 1316 1316 1316 1316 1316 1316 1316 1316 1316 1316 1317 1317 1317 1317 1318 1319 1320 1321 1321 1322 1323 1324 1325 1326 1327 1329 1330 1331 1333 1335 1336 1337 1339 1341 1343 1345 1346 1348 1351 1353 1355 1356 1358
1332 1331 1329 1328 1327 1326 1324 1323 1322 1321 1320 1318 1317 1317 1316 1315 1315 1314 1313 1313 1313 1313 1312 1312 1313 1313 1313 1312 1312 1313 1313 1312 1312 1312 1313 1313 1314 1314 1314 1314 1314 1315 1316 1317 1318 1319 1320 1321 1322 1323 1325 1326 1327 1329 1330 1332 1333 1335 1336 1338 1340 1342 1344 1346 1348 1350 1352 1354 1355
1330 1329 1327 1326 1325 1323 1322 1321 1320 1318 1317 1316 1315 1314 1314 1313 1312 1311 1311 1311 1310 1310 1310 1310 1310 1310 1310 1309 1309 1309 1309 1309 1309 1309 1309 1310 1310 1311 1311 1311 1311 1311 1312 1314 1315 1316 1317 1318 1319 1321 1322 1323 1325 1326 1327 1329 1331 1332 1334 1336 1337 1339 1341 1343 1345 1347 1349 1351 1353
1328 1327 1326 1324 1323 1321 1320 1319 1317 1316 1315 1314 1313 1312 1311 1311 1310 1309 1308 1308 1308 1308 1307 1307 1307 1306 1306 1306 1306 1306 1306 1306 1306 1306 1306 1306 1306 1307 1307 1308 1308 1308 1309 1310 1311 1312 1314 1315 1316 1317 1319 1321 1322 1323 1325 1326 1328 1329 1331 1333 1334 1336 1338 1340 1342 1345 1347 1349 1351
1327 1325 1324 1322 1321 1320 1318 1317 1316 1314 1313 1312 1311 1310 1309 1308 1307 1306 1306 1305 1305 1305 1305 1304 1304 1304 1303 1303 1303 1303 1302 1303 1303 1302 1302 1302 1302 1302 1303 1304 1304 1305 1305 1306 1308 1309 1311 1312 1313 1315 1316 1318 1319 1321 1322 1324 1325 1326 1328 1330 1331 1333 1335 1337 1340 1342 1344 1346 1348
1325 1324 1322 1321 1319 1318 1316 1315 1314 1312 1311 1310 1309 1307 1306 1306 1305 1304 1304 1303 1303 1302 1302 1301 1301 1301 1300 1300 1300 1299 1299 1300 1299 1299 1299 1299 1298 1299 1299 1300 1301 1301 1302 1303 1305 1306 1308 1309 1311 1312 1314 1316 1317 1318 1320 1321 1322 1324 1326 1327 1329 1331 1333 1335 1337 1339 1341 1343 1345
1324 1322 1321 1319 1318 1316 1315 1313 1312 1311 1309 1308 1307 1306 1305 1304 1303 1302 1301 1301 1300 1300 1299 1299 1298 1298 1297 1297 1296 1296 1296 1296 1295 1295 1295 1295 1295 1295 1296 1296 1297 1298 1298 1300 1301 1303 1305 1306 1308 1310 1311 1313 1315 1316 1317 1319 1320 1321 1323 1325 1326 1328 1330 1332 1334 1336 1338 1341 1342
1322 1321 1319 1318 1316 1315 1313 1312 1310 1309 1307 1306 1305 1304 1303 1302 1301 1300 1300 1299 1298 1297 1297 1296 1295 1295 1294 1293 1293 1292 1292 1292 1291 1291 1291 1291 1291 1291 1292 1292 1293 1294 1295 1296 1298 1300 1302 1304 1306 1307 1309 1311 1312 1314 1315 1316 1318 1319 1321 1322 1324 1326 1328 1330 1332 1334 1336 1338 1340
1321 1320 1318 1316 1315 1313 1312 1310 1309 1307 1306 1305 1304 1302 1301 1300 1299 1298 1297 1297 1296 1295 1295 1294 1293 1292 1291 1290 1289 1289 1288 1288 1288 1287 1287 1286 1287 1287 1288 1289 1290 1291 1292 1294 1295 1297 1299 1301 1303 1305 1307 1308 1310 1311 1313 1314 1316 1317 1318 1320 1322 1324 1326 1328 1330 1331 1333 1335 1337
1320 1319 1317 1316 1314 1312 1311 1309 1307 1306 1305 1303 1302 1301 1300 1299 1298 1296 1296 1295 1294 1293 1292 1291 1290 1289 1287 1286 1286 1285 1285 1284 1284 1283 1283 1283 1283 1284 1285 1286 1287 1288 1290 1291 1293 1295 1297 1299 1301 1303 1305 1306 1308 1310 1311 1312 1314 1315 1317 1319 1321 1323 1325 1326 1328 1329 1331 1333 1335
1319 1318 1316 1314 1313 1311 1310 1308 1306 1305 1303 1302 1301 1300 1298 1297 1296 1295 1294 1293 1292 1291 1290 1289 1287 1286 1285 1284 1283 1282 1281 1281 1281 1280 1280 1280 1281 1281 1282 1283 1285 1286 1287 1289 1291 1292 1295 1297 1299 1301 1303 1304 1306 1307 1309 1310 1312 1314 1316 1318 1319 1321 1322 1324 1325 1326 1328 1331 1333
1319 1317 1315 1314 1312 1310 1309 1307 1305 1304 1302 1301 1300 1298 1297 1296 1295 1294 1292 1291 1290 1289 1288 1286 1285 1283 1282 1281 1280 1279 1279 1278 1278 1277 1277 1278 1278 1279 1280 1281 1282 1284 1285 1287 1289 1291 1293 1295 1297 1299 1301 1302 1304 1306 1307 1309 1311 1313 1315 1316 1318 1319 1321 1321 1323 1325 1326 1329 1331
1318 1316 1315 1313 1311 1310 1308 1306 1305 1303 1301 1300 1299 1297 1296 1295 1294 1292 1291 1290 1289 1287 1286 1284 1282 1281 1280 1279 1277 1277 1276 1276 1275 1275 1276 1276 1276 1277 1278 1279 1281 1282 1284 1286 1287 1289 1291 1293 1296 1297 1299 1301 1303 1304 1306 1307 1309 1311 1313 1315 1316 1317 1318 1320 1321 1323 1325 1327 1329
1318 1316 1314 1312 1311 1309 1307 1306 1304 1302 1301 1299 1298 1296 1295 1294 1293 1291 1290 1289 1287 1286 1284 1283 1281 1280 1278 1277 1275 1275 1274 1274 1274 1274 1275 1275 1275 1276 1276 1277 1279 1281 1282 1284 1286 1288 1290 1292 1294 1296 1298 1300 1301 1303 1304 1306 1307 1309 1311 1313 1314 1316 1316 1318 1320 1321 1323 1325 1327
1317 1316 1314 1312 1310 1308 1307 1305 1303 1302 1300 1299 1297 1296 1295 1293 1292 1291 1289 1288 1286 1285 1283 1281 1280 1278 1277 1275 1274 1273 1273 1273 1273 1274 1274 1274 1274 1275 1275 1276 1278 1279 1281 1283 1285 1287 1289 1291 1293 1295 1296 1298 1300 1301 1303 1304 1306 1308 1310 1311 1312 1314 1315 1316 1318 1320 1321 1323 1325
1317 1316 1314 1312 1310 1308 1306 1305 1303 1301 1300 1298 1297 1296 1294 1293 1292 1290 1289 1287 1286 1284 1282 1281 1279 1277 1276 1275 1274 1273 1273 1273 1273 1273 1273 1274 1274 1274 1275 1276 1277 1278 1280 1282 1284 1286 1287 1289 1291 1293 1295 1296 1298 1300 1301 1302 1304 1306 1308 1310 1311 1312 1313 1315 1316 1318 1320 1321 1323
1317 1315 1314 1312 1310 1308 1306 1305 1303 1301 1300 1298 1297 1296 1294 1293 1292 1291 1289 1287 1286 1284 1282 1280 1278 1277 1276 1275 1274 1273 1272 1273 1273 1273 1273 1273 1274 1274 1275 1275 1276 1278 1279 1281 1283 1285 1286 1288 1290 1292 1294 1295 1297 1298 1300 1301 1302 1305 1307 1308 1310 1311 1312 1314 1315 1317 1318 1320 1321
1317 1315 1313 1312 1310 1308 1307 1305 1303 1302 1300 1299 1297 1296 1295 1293 1292 1290 1289 1287 1286 1284 1282 1281 1278 1277 1276 1275 1274 1273 1273 1272 1272 1272 1273 1273 1273 1274 1275 1275 1276 1278 1279 1281 1282 1284 1285 1287 1288 1290 1292 1295 1296 1297 1298 1300 1301 1303 1306 1307 1308 1310 1311 1312 1314 1315 1317 1318 1320
1317 1315 1314 1312 1310 1309 1307 1306 1304 1302 1301 1299 1297 1296 1295 1293 1292 1291 1289 1288 1286 1285 1283 1281 1279 1278 1276 1275 1274 1273 1273 1273 1272 1272 1273 1273 1274 1274 1275 1276 1276 1278 1279 1281 1282 1283 1284 1285 1286 1288 1291 1294 1295 1296 1297 1299 1300 1302 1304 1306 1307 1309 1310 1311 1312 1314 1316 1317 1319
1317 1316 1314 1312 1311 1309 1307 1306 1304 1303 1301 1299 1298 1296 1295 1294 1292 1291 1290 1288 1286 1285 1284 1282 1281 1279 1277 1275 1274 1273 1273 1273 1273 1273 1273 1273 1274 1274 1275 1275 1276 1277 1278 1279 1281 1282 1283 1284 1285 1287 1290 1293 1295 1296 1296 1298 1300 1301 1303 1305 1306 1307 1308 1310 1311 1313 1315 1316 1318
1318 1316 1314 1313 1311 1310 1308 1306 1305 1303 1301 1300 1298 1297 1296 1294 1293 1291 1290 1289 1287 1286 1284 1283 1282 1280 1278 1276 1275 1274 1273 1273 1273 1273 1273 1273 1273 1273 1274 1274 1275 1276 1277 1278 1279 1281 1282 1283 1284 1286 1289 1291 1293 1295 1296 1297 1299 1300 1301 1303 1305 1306 1307 1309 1310 1312 1314 1316 1317
1318 1316 1315 1313 1311 1310 1308 1307 1305 1303 1302 1300 1299 1297 1296 1295 1294 1292 1291 1289 1288 1286 1285 1284 1282 1281 1280 1278 1276 1275 1274 1273 1273 1273 1273 1273 1273 1273 1274 1274 1275 1275 1276 1278 1279 1280 1281 1283 1284 1286 1288 1290 1291 1293 1295 1296 1297 1299 1300 1301 1303 1304 1306 1307 1309 1311 1313 1315 1316
1319 1317 1316 1314 1312 1311 1309 1307 1306 1304 1302 1301 1300 1298 1297 1296 1294 1293 1292 1290 1289 1287 1286 1285 1284 1283 1282 1281 1279 1277 1275 1275 1274 1273 1273 1273 1273 1273 1273 1274 1274 1275 1276 1277 1278 1280 1281 1282 1284 1285 1287 1288 1290 1291 1293 1294 1296 1297 1299 1300 1301 1303 1305 1306 1308 1310 1312 1313 1315
1320 1318 1316 1315 1313 1311 1310 1308 1306 1305 1303 1302 1300 1299 1298 1297 1296 1294 1293 1291 1290 1289 1287 1286 1285 1284 1283 1282 1281 1279 1277 1276 1275 1275 1274 1274 1274 1274 1274 1274 1274 1275 1276 1277 1278 1279 1280 1282 1283 1285 1286 1287 1288 1290 1291 1293 1295 1296 1298 1299 1301 1302 1304 1306 1308 1310 1311 1313 1315
1320 1319 1317 1315 1314 1312 1311 1309 1307 1306 1304 1303 1301 1300 1299 1298 1297 1295 1294 1292 1291 1290 1289 1287 1286 1286 1285 1283 1282 1281 1279 1277 1277 1276 1275 1275 1275 1274 1274 1274 1274 1275 1276 1277 1278 1279 1280 1281 1283 1284 1285 1286 1288 1289 1291 1292 1294 1296 1298 1299 1301 1302 1304 1306 1308 1310 1311 1313 1315